Rbgn^[z[y[W
メイン
   新天体発見情報
     Comet P/2010 B2 = 2020 Y1 (WISE)
投稿するにはまず登録を

スレッド表示 | 新しいものから 前のトピック | 次のトピック | 下へ
投稿者 スレッド
佐藤裕久
投稿日時: 2021-1-24 2:27
モデレータ
登録日: 2005-6-12
居住地: 日本
投稿: 2180
オンライン
Comet P/2010 B2 = 2020 Y1 (WISE)

Q.-z. Ye (メリーランド大学, 天文学部)の通報によると、2020年12月19日と20日UT、Lowell 
Discovery Telescope (LDT, G37:旧DCT)の4.3-m 反射望遠鏡で得た画像から、非常に集光した
4.5"のコマのある(尾はない)20.1等のP/2010 B2 (IAUC 9115を参照)を検出した。

検出位置は次のとおり、

     2020 UT             R.A. (2000) Decl.       Mag.   Observer
     Dec. 19.45501   13 15 19.13   - 5 27 36.5   20.1   Ye
          19.45870   13 15 19.72   - 5 27 41.0   20.3    "
          20.51517   13 17 45.54   - 5 47 24.2   19.9    "
          20.51887   13 17 45.91   - 5 47 27.0   20.0    "

2015年、この彗星が太陽からわずか50°で、Cerro Tololo 4-m 反射望遠鏡(+ DECam)で得た1個
のi-バンド観測で検出が確認され、S. Deen (Simi Valley, カリフォルニア州)によって同定さ
れた。

     2015 UT             R.A. (2000) Decl.       Mag.
     June  3.96252    8 22 48.32   +22 56 57.2   20.0

NK 3440およびICQ's 2020 Comet Handbookの中野主一氏の予報に対し、Delta(T)は、+0.48  
dayであった。MPC 105235のG. V. Williamsの予報に対するDelta(T)は、+0.81 dayであった。
彗星年表2020の佐藤裕久の予報に対する修正値は、Delta(T) = +0.82 dayであった。

MPCの連結軌道要素と位置推算表は次のとおり、

Orbital elements:
    P/2010 B2 (WISE)                                                            
Epoch 2010 Jan. 4.0 TT = JDT 2455200.5                                          
T 2009 Dec. 21.91386 TT                                 Bell                    
q   1.6164776            (2000.0)            P               Q                  
n   0.17965763     Peri.  156.04799     -0.91989649     -0.39215409             
a   3.1105626      Node     0.87394     +0.33005173     -0.77745264             
e   0.4803263      Incl.    8.93161     +0.21179305     -0.49171391             
P   5.49                                                                        
From 58 observations 2010 Jan. 22-2020 Dec. 20, mean residual 0".6.             
                                                                                
    P/2010 B2 (WISE)                                                            
Epoch 2015 June 27.0 TT = JDT 2457200.5                                         
T 2015 June 13.85685 TT                                 Bell                    
q   1.6119970            (2000.0)            P               Q                  
n   0.17993294     Peri.  155.95217     -0.91909910     -0.39401967             
a   3.1073888      Node     0.85327     +0.33162855     -0.77670881             
e   0.4812374      Incl.    8.93870     +0.21278947     -0.49139794             
P   5.48                                                                        
From 58 observations 2010 Jan. 22-2020 Dec. 20, mean residual 0".6.             
                                                                                
    P/2010 B2 (WISE)                                                            
Epoch 2020 Dec. 17.0 TT = JDT 2459200.5                                         
T 2020 Dec. 5.37894 TT                                  Bell                    
q   1.6175445            (2000.0)            P               Q                  
n   0.17967884     Peri.  155.92043     -0.91885031     -0.39459957             
a   3.1103178      Node     0.84879     +0.33215422     -0.77656251             
e   0.4799424      Incl.    8.93098     +0.21304384     -0.49116377             
P   5.49                                                                        
From 58 observations 2010 Jan. 22-2020 Dec. 20, mean residual 0".6.             
                                                                                
    P/2010 B2 (WISE)                                                            
Epoch 2026 June 9.0 TT = JDT 2461200.5                                          
T 2026 May 30.53937 TT                                  Bell                    
q   1.6216655            (2000.0)            P               Q                  
n   0.17946202     Peri.  155.81918     -0.91793509     -0.39672443             
a   3.1128225      Node     0.81709     +0.33400071     -0.77579250             
e   0.4790370      Incl.    8.92870     +0.21409973     -0.49066864             
P   5.49                                                                        
From 58 observations 2010 Jan. 22-2020 Dec. 20, mean residual 0".6.             
                                                                                
    P/2010 B2 (WISE)                                                            
Epoch 2020 Dec. 17.0 TT = JDT 2459200.5                                         
T 2020 Dec. 5.37894 TT                                  Bell                    
q   1.6175445            (2000.0)            P               Q                  
n   0.17967884     Peri.  155.92043     -0.91885031     -0.39459957             
a   3.1103178      Node     0.84879     +0.33215422     -0.77656251             
e   0.4799424      Incl.    8.93098     +0.21304384     -0.49116377             
P   5.49                                                                        
From 58 observations 2010 Jan. 22-2020 Dec. 20, mean residual 0".6.             
                                                                                
Ephemeris:
Date    TT    R. A. (2000) Decl.     Delta      r    Elong.  Phase   m1
2020 12 09    12 50 49.4 -02 08 59   1.7739  1.6179    64.6    33.4  20.3
...
2020 12 24    13 25 42.7 -06 51 48   1.6754  1.6269    70.0    34.6  20.2
...
2021 01 01    13 43 35.7 -09 16 16   1.6243  1.6366    73.1    35.1  20.2
...
2021 01 07    13 56 36.9 -11 00 59   1.5864  1.6460    75.6    35.4  20.2
2021 01 08    13 58 44.9 -11 18 06   1.5801  1.6477    76.1    35.4  20.2
2021 01 09    14 00 52.2 -11 35 08   1.5738  1.6495    76.5    35.4  20.2
...
2021 01 15    14 13 20.8 -13 15 08   1.5362  1.6613    79.2    35.6  20.1
...
2021 01 23    14 29 13.1 -15 22 32   1.4864  1.6796    83.0    35.6  20.1
...
2021 02 07    14 56 05.1 -19 02 39   1.3940  1.7216    91.0    34.9  20.1

(MPEC 2021-A76、CBET 4904、oaa-comet 1475)

スレッド表示 | 新しいものから 前のトピック | 次のトピック | トップ

投稿するにはまず登録を
 
© 1999 Tsutomu Seki.